Regional Weather Roundup
Issued by NWS Goodland, KS

Home | Current Version | Previous Version | Graphics & Text | Print | Product List | Glossary On
Versions: 1 2 3 4 5 6 7 8 9 10 11 12 13 14 15 16 17 18 19 20 21 22 23 24 25 26 27 28 29 30 31 32 33 34 35 36 37 38 39 40 41 42 43 44 45 46 47 48 49 50
000
ASUS43 KGLD 262208
RWRGLD

GOODLAND FORECAST AREA HOURLY WEATHER ROUNDUP
NATIONAL WEATHER SERVICE GOODLAND KS
300 PM MST MON JAN 26 2015

...OFFICIAL OBSERVATIONS...

CITY           SKY/WX    TMP DP  RH WIND       PRES   REMARKS
GOODLAND KS    SUNNY     68  30  24 NW14      30.14R
HILL CITY KS   SUNNY     72  29  20 NW20G30   30.04S
IMPERIAL NEB   SUNNY     67  29  24 NW17      30.10R
MCCOOK NEB     SUNNY     71  29  21 NW20G29   30.06R
AKRON CO       SUNNY     63  31  30 W5        30.17S
BURLINGTON CO  SUNNY     67  30  25 N10       30.16F
LIMON CO       SUNNY     66  22  18 NW12      30.21F
$$

...UNOFFICIAL OBSERVATIONS...

CITY           SKY/WX    TMP DP  RH WIND       PRES   REMARKS
COLBY KS       SUNNY     70  37  30 NW17G25   30.12R
GOVE KS          N/A     71  32  23 MISG        N/A
NORTON KS      SUNNY     70  21  16 NW18G28   30.03S
SHARON SPRINGS   N/A     69  33  26 NW12        N/A
KIT CARSON CO    N/A     68  31  25 MISG        N/A
YUMA CO          N/A     66  30  26 NW12        N/A
$$



USA.gov is the U.S. government's official web portal to all federal, state and local government web resources and services.